[[{"header":{"parameterUnit":"m.s-1","parameterCategory":1,"la1":30.2991,"la2":30.254,"lo1":-89.0895,"lo2":-89.0444,"dy":0.0017,"dx":0.0017,"nx":28,"ny":28,"refTime":"2024-03-08T03:00:00:Z","depth":0,"parameterNumber":2,"parameterNumberName":"U-component_of_WINDS"},"data":[0,0,0,0,0,0,0,0,0,0,0,0,0,0,0,0,0,0,0,0,0,0,0,0,0,0,0,0,0,0,0,0,0,0,0,0,0,0,0,0,0,0,0,0,0,0,0,0,0,0,0,0,0,0,0,0,0,0,-2.6123,-2.6128,0,-2.6648,-2.6654,-2.666,-2.6924,-2.6924,-2.6925,-2.6925,-2.7478,-2.7492,-2.7506,0,0,0,0,0,0,0,0,0,0,0,0,0,-2.5365,-2.5378,-2.6122,-2.6129,-2.6135,-2.6647,-2.6654,-2.6661,-2.6924,-2.6924,-2.6925,-2.6925,-2.7473,-2.749,-2.7508,0,0,0,0,0,0,0,0,0,0,0,0,0,-2.5773,-2.5382,-2.6121,-2.6328,-2.6351,-2.6645,-2.6654,-2.6663,-2.6924,-2.6924,-2.6925,-2.6925,-2.7467,-2.7489,-2.751,-2.7643,0,0,-2.7577,-2.7587,0,0,0,0,0,0,0,0,-2.5749,-2.58,-2.6291,-2.6314,-2.6341,-2.672,-2.659,-2.6992,-2.6924,-2.6707,-2.6925,-2.6925,-2.7227,-2.7268,-2.7367,-2.7669,-2.7692,-2.7579,-2.7593,-2.7602,-2.7608,0,0,0,0,0,0,0,-2.5721,-2.5779,-2.6331,-2.6298,-2.6328,-2.6401,-2.6459,-2.6668,-2.696,-2.6726,-2.6747,-2.6804,-2.7241,-2.7345,-2.7382,-2.7701,-2.7579,-2.7598,-2.7612,-2.762,-2.8144,-2.8145,0,0,0,0,0,0,-2.5657,-2.5754,-2.6314,-2.6346,-2.6039,-2.6414,-2.6479,-2.6599,-2.6959,-2.7013,-2.6804,-2.6815,-2.7308,-2.7356,-2.7402,-2.7585,-2.7602,-2.7622,-2.7635,-2.8143,-2.8144,-2.8145,0,0,0,0,0,0,-2.5639,-2.5704,-2.6293,-2.6056,-2.6136,-2.6427,-2.6559,-2.6609,-2.6714,-2.7017,-2.7072,-2.6855,-2.731,-2.7372,-2.7581,-2.7608,-2.7632,-2.7652,-2.8142,-2.8144,-2.8145,-2.7947,0,0,0,0,0,0,-2.5616,-2.5696,-2.5745,-2.6055,-2.6148,-2.6456,-2.6561,-2.6619,-2.6749,-2.6769,-2.708,-2.7132,-2.7315,-2.7547,-2.7603,-2.7638,-2.7669,-2.8142,-2.8143,-2.8144,-2.7953,-2.7941,-2.7932,0,0,0,0,0,-2.5588,-2.5671,-2.5746,-2.5812,-2.6214,-2.6457,-2.6511,-2.6715,-2.675,-2.6805,-2.7001,-2.7122,-2.7595,-2.7566,-2.7632,-2.7674,-2.8141,-2.8143,-2.8144,-2.7957,-2.7944,-2.7932,0,0,0,0,0,0,-2.5361,-2.5715,-2.5802,-2.5986,-2.6189,-2.6501,-2.6576,-2.6693,-2.6894,-2.6905,-2.7154,-2.7223,-2.741,-2.7564,-2.7525,-2.7824,-2.7881,-2.7895,-2.7716,-2.7706,-2.7695,-2.7655,-2.7688,0,0,0,0,0,-2.5331,-2.5493,-2.5797,-2.593,-2.6027,-2.6283,-2.6397,-2.6536,-2.6759,-2.6847,-2.7059,-2.7274,-2.7473,-2.7598,-2.7797,-2.7976,-2.8052,-2.8039,-2.8028,-2.8018,-2.8028,-2.814,-2.8139,-2.8151,-2.8151,-2.8151,0,0,-2.5273,-2.5487,-2.5575,-2.5889,-2.6063,-2.6232,-2.6354,-2.6526,-2.6656,-2.6876,-2.7086,-2.7248,-2.7507,-2.7702,-2.7799,-2.7836,-2.8041,-2.802,-2.8009,-2.8026,-2.8141,-2.814,-2.8138,-2.8152,-2.8152,-2.8151,0,0,-2.5254,-2.5429,-2.5561,-2.5732,-2.5992,-2.6163,-2.6193,-2.649,-2.6605,-2.6818,-2.6988,-2.7149,-2.7483,-2.7662,-2.7796,-2.7847,-2.7969,-2.7905,-2.7851,-2.7957,-2.7956,-2.7956,-2.7978,-2.7982,-2.7915,-2.7914,-2.7914,0,-2.515,-2.5404,-2.5615,-2.5778,-2.5914,-2.6117,-2.6256,-2.6414,-2.6727,-2.6819,-2.6855,-2.7281,-2.7469,-2.7712,-2.7724,-2.7825,-2.7874,-2.7871,-2.7938,-2.7941,-2.7944,-2.7968,-2.7975,-2.7905,-2.7906,-2.7907,-2.7908,0,-2.5266,-2.5441,-2.5517,-2.5809,-2.5955,-2.6105,-2.6344,-2.6467,-2.6595,-2.6763,-2.6982,-2.7215,-2.7466,-2.7534,-2.7662,-2.7797,-2.7812,-2.7889,-2.7951,-2.793,-2.7957,-2.7967,-2.7891,-2.7895,-2.7898,-2.79,0,0,-2.5116,-2.5523,-2.5548,-2.5685,-2.5988,-2.6131,-2.6294,-2.6535,-2.6637,-2.6848,-2.6994,-2.7274,-2.7349,-2.7501,-2.7652,-2.7744,-2.7774,-2.7812,-2.7822,-2.7799,-2.7943,-2.7883,-2.7889,-2.7856,-2.7859,-2.7861,-2.7922,0,-2.514,-2.5433,-2.563,-2.5849,-2.6016,-2.6213,-2.6357,-2.6561,-2.6724,-2.6895,-2.7079,-2.7274,-2.7355,-2.7449,-2.7549,-2.7748,-2.7807,-2.7747,-2.8001,-2.8007,-2.793,-2.7903,-2.784,-2.7886,-2.7933,-2.7935,-2.7937,0,-2.5207,-2.5407,-2.5641,-2.5929,-2.6007,-2.613,-2.637,-2.6529,-2.6768,-2.6882,-2.7051,-2.7205,-2.7392,-2.7437,-2.7702,-2.7656,-2.7773,-2.7887,-2.7894,-2.7927,-2.797,-2.7937,-2.7905,-2.7912,-2.7955,-2.7953,-2.7952,0,-2.5076,-2.5405,-2.5589,-2.57,-2.604,-2.6123,-2.627,-2.6509,-2.6643,-2.6855,-2.6946,-2.7177,-2.7304,-2.7483,-2.7698,-2.771,-2.7942,-2.8004,-2.8046,-2.8041,-2.8087,-2.8081,-2.8074,-2.8157,-2.8157,-2.8157,-2.8157,0,-2.5083,-2.5219,-2.5535,-2.5647,-2.5809,-2.6036,-2.6192,-2.6356,-2.6568,-2.6722,-2.6909,-2.705,-2.7324,-2.7501,-2.7671,-2.7866,-2.7923,-2.8023,-2.8067,-2.8007,-2.7995,-2.8088,-2.8091,-2.8159,-2.8159,-2.8158,-2.8158,0,-2.4964,-2.518,-2.5393,-2.5697,-2.5778,-2.5883,-2.6148,-2.6269,-2.6442,-2.6635,-2.6694,-2.6968,-2.7187,-2.7418,-2.7716,-2.7831,-2.802,-2.8081,-2.7937,-2.7962,-2.7992,-2.7986,-2.8046,-2.8068,-2.8132,-2.8131,-2.813,0,-2.4954,-2.5063,-2.5378,-2.5491,-2.5632,-2.5813,-2.595,-2.6181,-2.6317,-2.6601,-2.6689,-2.692,-2.7118,-2.7459,-2.7689,-2.792,-2.7989,-2.7994,-2.8025,-2.7963,-2.7993,-2.7984,-2.7999,-2.7984,-2.7982,-2.798,-2.7979,0,-2.4914,-2.5017,-2.5203,-2.5428,-2.5585,-2.5775,-2.5973,-2.6058,-2.633,-2.6475,-2.6697,-2.685,-2.7154,-2.7384,-2.7643,-2.7803,-2.7938,-2.7967,-2.799,-2.7931,-2.7844,-2.7894,-2.7911,-2.7965,-2.7967,-2.7968,-2.7968,-2.7969,-2.4852,-2.4959,-2.5198,-2.5402,-2.5574,-2.5755,-2.5884,-2.6074,-2.6262,-2.6524,-2.6651,-2.6875,-2.712,-2.7481,-2.7637,-2.782,-2.7861,-2.7892,-2.7901,-2.7905,-2.7891,-2.7812,-2.7869,-2.7869,-2.787,-2.7871,-2.7871,0,-2.4824,-2.4988,-2.5172,-2.5441,-2.5603,-2.5712,-2.5938,-2.6068,-2.6261,-2.6475,-2.6665,-2.6924,-2.7149,-2.7397,-2.7639,-2.7739,-2.7808,-2.7795,-2.7791,-2.7827,-2.784,-2.7797,-2.7735,-2.7735,-2.7735,-2.7735,-2.7735,-2.7735,-2.4828,-2.5016,-2.5147,-2.5426,-2.5592,-2.5808,-2.5929,-2.61,-2.6272,-2.6551,-2.6737,-2.6896,-2.7127,-2.7387,-2.7601,-2.7669,-2.7751,-2.772,-2.7806,-2.7814,-2.7825,-2.7835,-2.7797,-2.7735,-2.7735,-2.7779,-2.7779,-2.7779]},{"header":{"parameterUnit":"m.s-1","parameterCategory":1,"la1":30.2991,"la2":30.254,"lo1":-89.0895,"lo2":-89.0444,"dy":0.0017,"dx":0.0017,"nx":28,"ny":28,"refTime":"2024-03-08T03:00:00:Z","depth":0,"parameterNumber":3,"parameterNumberName":"V-component_of_WINDS"},"data":[0,0,0,0,0,0,0,0,0,0,0,0,0,0,0,0,0,0,0,0,0,0,0,0,0,0,0,0,0,0,0,0,0,0,0,0,0,0,0,0,0,0,0,0,0,0,0,0,0,0,0,0,0,0,0,0,0,0,5.1707,5.1709,0,5.1894,5.1896,5.1899,5.1913,5.1911,5.1909,5.1907,5.2097,5.2104,5.211,0,0,0,0,0,0,0,0,0,0,0,0,0,5.1363,5.1369,5.1706,5.1709,5.1711,5.1894,5.1897,5.1899,5.1914,5.1911,5.1909,5.1906,5.2094,5.2103,5.2111,0,0,0,0,0,0,0,0,0,0,0,0,0,5.1527,5.1371,5.1706,5.1741,5.1746,5.1893,5.1897,5.19,5.1914,5.1911,5.1908,5.1905,5.2092,5.2102,5.2112,5.2237,0,0,5.2144,5.2148,0,0,0,0,0,0,0,0,5.1518,5.154,5.1733,5.1739,5.1744,5.1877,5.1845,5.2013,5.1915,5.185,5.1907,5.1904,5.2026,5.2042,5.2083,5.2246,5.2254,5.2145,5.2151,5.2156,5.2159,0,0,0,0,0,0,0,5.1506,5.1532,5.1781,5.1736,5.1743,5.1747,5.1767,5.1877,5.1953,5.1856,5.1857,5.1879,5.2028,5.2073,5.2088,5.2257,5.2145,5.2154,5.216,5.2164,5.2539,5.2543,0,0,0,0,0,0,5.1488,5.1522,5.1775,5.1786,5.1621,5.1756,5.1778,5.1838,5.1952,5.1966,5.1882,5.1879,5.2057,5.2076,5.2095,5.2254,5.2156,5.2165,5.2171,5.2535,5.254,5.2544,0,0,0,0,0,0,5.1481,5.1511,5.1767,5.1655,5.1688,5.1765,5.1832,5.1843,5.1888,5.1972,5.1985,5.1914,5.2055,5.208,5.2204,5.2261,5.217,5.2179,5.2531,5.2537,5.2542,5.257,0,0,0,0,0,0,5.1471,5.1508,5.1556,5.1656,5.1694,5.1873,5.1835,5.1849,5.1906,5.1905,5.2005,5.2019,5.2055,5.2188,5.2214,5.2273,5.2188,5.2526,5.2534,5.254,5.2564,5.2576,5.2586,0,0,0,0,0,5.1459,5.1554,5.1558,5.1588,5.1755,5.1876,5.1897,5.1938,5.1911,5.196,5.2015,5.2015,5.225,5.2201,5.223,5.2293,5.2523,5.2531,5.254,5.256,5.2574,5.2585,0,0,0,0,0,0,5.1456,5.1568,5.1573,5.1704,5.1781,5.1878,5.1941,5.1951,5.2036,5.2031,5.2077,5.2099,5.2223,5.227,5.2213,5.2424,5.2383,5.2398,5.2389,5.2403,5.2413,5.24,5.2196,0,0,0,0,0,5.1471,5.156,5.1652,5.1759,5.1797,5.1863,5.1917,5.1942,5.2023,5.2055,5.2118,5.2196,5.2289,5.2347,5.2436,5.2571,5.2595,5.2629,5.264,5.2648,5.2661,5.2742,5.2759,5.2571,5.2571,5.2571,0,0,5.1502,5.1574,5.1627,5.176,5.1823,5.1915,5.189,5.1987,5.2057,5.2069,5.2192,5.2241,5.2332,5.2463,5.2524,5.2506,5.2718,5.2659,5.2665,5.2673,5.2752,5.277,5.2785,5.2577,5.2576,5.2575,0,0,5.1608,5.1669,5.1768,5.1832,5.1928,5.1972,5.1996,5.2093,5.2128,5.2251,5.2265,5.2348,5.2503,5.2569,5.2623,5.2759,5.2765,5.2786,5.2843,5.2921,5.2936,5.2949,5.3003,5.302,5.2798,5.2799,5.2799,0,5.1634,5.1774,5.1816,5.1916,5.1976,5.1994,5.2096,5.2156,5.2275,5.2317,5.2295,5.2496,5.2557,5.2707,5.2741,5.2782,5.2813,5.2776,5.293,5.2944,5.2957,5.3009,5.3028,5.2801,5.2801,5.28,5.28,0,5.1805,5.1902,5.197,5.2089,5.2156,5.2255,5.2315,5.2378,5.2398,5.2445,5.2574,5.2649,5.2756,5.2793,5.2811,5.2947,5.2934,5.2921,5.2882,5.2977,5.3026,5.3046,5.2804,5.2803,5.2803,5.2802,0,0,5.1912,5.2057,5.2081,5.2138,5.2247,5.2324,5.2426,5.2533,5.2588,5.267,5.276,5.2894,5.2884,5.2945,5.2972,5.304,5.315,5.302,5.3023,5.3045,5.331,5.3322,5.3344,5.3154,5.3158,5.3161,5.3304,0,5.2033,5.2217,5.226,5.2418,5.2511,5.2532,5.2622,5.27,5.2747,5.2833,5.2885,5.2981,5.2958,5.2997,5.3065,5.3122,5.3205,5.3112,5.324,5.3244,5.322,5.3369,5.3381,5.3512,5.3323,5.3326,5.3328,0,5.2198,5.2288,5.2456,5.256,5.26,5.268,5.2785,5.2866,5.2956,5.2986,5.3057,5.3079,5.3188,5.3143,5.3296,5.3233,5.3287,5.3324,5.333,5.3346,5.3294,5.3393,5.3555,5.3576,5.3358,5.3356,5.3354,0,5.2265,5.2428,5.2552,5.2599,5.2721,5.2778,5.2831,5.2918,5.2981,5.3072,5.3115,5.3216,5.3273,5.3351,5.3401,5.3362,5.3552,5.3509,5.3583,5.3582,5.3624,5.3621,5.3801,5.3652,5.3652,5.3652,5.3651,0,5.2398,5.2501,5.2585,5.2661,5.2779,5.2829,5.2944,5.2997,5.3076,5.3164,5.3186,5.3269,5.3327,5.3419,5.3457,5.3582,5.3605,5.3635,5.3645,5.3635,5.3632,5.3674,5.3667,5.3657,5.3656,5.3655,5.3654,0,5.2494,5.2553,5.2691,5.2796,5.2826,5.2908,5.2999,5.3075,5.3124,5.3236,5.3265,5.3342,5.3451,5.3508,5.3643,5.367,5.3811,5.3813,5.3781,5.3786,5.3858,5.3853,5.4074,5.4108,5.3933,5.3935,5.3936,0,5.2576,5.2657,5.2773,5.2835,5.2891,5.2989,5.3055,5.3108,5.3176,5.3288,5.3352,5.3462,5.3554,5.3728,5.3796,5.3901,5.3908,5.3979,5.3924,5.3914,5.3915,5.3912,5.3922,5.3989,5.3991,5.3992,5.3993,0,5.2717,5.2745,5.284,5.2948,5.3027,5.3113,5.3198,5.3248,5.3315,5.3391,5.3504,5.3576,5.3717,5.3828,5.3939,5.3994,5.4007,5.401,5.4034,5.4026,5.4007,5.4024,5.3812,5.4005,5.4004,5.4003,5.4002,5.4002,5.2812,5.2888,5.2983,5.309,5.3161,5.3241,5.332,5.3381,5.3477,5.3597,5.3622,5.3743,5.3836,5.3987,5.4046,5.4142,5.4128,5.416,5.4169,5.4178,5.4184,5.3989,5.4162,5.4162,5.4161,5.4161,5.4161,0,5.2959,5.3023,5.3121,5.3242,5.3328,5.3333,5.3429,5.35,5.3607,5.3693,5.3785,5.3917,5.4027,5.4105,5.4217,5.4279,5.4288,5.4307,5.4305,5.4319,5.4188,5.4159,5.4299,5.4298,5.4298,5.4298,5.4298,5.4298,5.3046,5.3176,5.3215,5.3381,5.3444,5.3565,5.362,5.3696,5.3766,5.3914,5.4006,5.4057,5.4141,5.426,5.4362,5.4382,5.4424,5.4443,5.4465,5.4341,5.4327,5.4313,5.4287,5.4451,5.4451,5.4589,5.459,5.4591]}]]